Weather in Fryazino

Russia / Moscow Oblast     55°57′28″N   38°03′08″E
temp.,
°C
wind,
m/s
gust,
m/s
humid.,
%
clouds,
%
prec.,
mm/h
press.,
hPa
HPBL,
m
19 january, wed
wed1900:00−11nnw4129488 0.0 1016362
03:00−14nw3109776 0.0 1017201
06:00−15wnw2698100 0.0 101799
09:00−19w119951 0.0 10189
12:00−9w24875 0.0 1017153
15:00−8ssw379036 0.0 1016232
18:00−11ssw3109387 0.0 1015191
21:00−10ssw41195100 0.0 1012262
20 january, thu
thu2000:00−9ssw41196100 0.0 1011298
03:00−7ssw41295100 0.1 1009371
06:00−5ssw51294100 0.1 1007437
09:00−4s51294100 0.2 1006463
12:00−3s51394100 0.1 1005501
15:00−3s61493100 0.1 1003620
18:00−5s61493100 0.1 1002584
21:00−5s61494100 0.4 1002660
21 january, fri
fri2100:00−5s61394100 1.3 1001639
03:00−5sse51395100 2.3 1002589
06:00−5sse51194100 0.8 1001466
09:00−6sse4995100 0.9 1002377
12:00−5se4995100 1.2 1001436
15:00−6se4995100 2.4 1000571
18:00−7se41095100 0.9 1000531
21:00−7ese499599 1.3 1000365
22 january, sat
sat2200:00−8ese3995100 0.5 1002340
03:00−7ese3796100 1.0 1003239
06:00−14ese269992 0.1 100598
09:00−13e399793 0.1 1008193
12:00−9ese4894100 0.1 1010327
15:00−8e4894100 0.3 1013391
18:00−9ese499697 0.1 1016282
21:00−12ene259899 0.1 101893
23 january, sun
sun2300:00−14ene249987 0.1 102161
03:00−17ene25100100 0.1 102363
06:00−20ne11100100 0.0 102511
09:00−18ne2310095 0.1 102858
12:00−11nne119490 0.1 1029128
15:00−9n139496 0.1 1030202
18:00−16n2210078 0.0 103211
21:00−20n22100100 0.0 103511